Temp
-6 -6 -6 -7 -7 -6 -6 -6 -5 -6 -5 -5 -5 -5 -5 -5 -5 -5 -5 -5 -5 -5 -5 -5 -5 -5 -5 -5 -5 -5 -5 -5 -5 -5 -5 -5 -5 -5 -5 -6 -6 -6 -6 -6 -6 -7 -7 -7 -7 -7 -8 -8 -8 -8 -8 -8 -8 -8 -8 -8 -8 -8 -8
-6 -6 -6 -6 -6 -6 -6 -6 -6 -5 -5 -5 -5 -5 -5 -5 -5 -5 -5 -5 -5 -5 -5 -5 -5 -5 -5 -5 -5 -5 -5 -5 -5 -5 -5 -5 -5 -5 -6 -6 -6 -6 -6 -6 -6 -6 -7 -7 -7 -8 -8 -8 -8 -8 -8 -8 -8 -8 -8 -8 -8 -8 -8
-6 -6 -6 -6 -6 -6 -6 -6 -6 -5 -5 -5 -6 -5 -5 -5 -5 -5 -5 -5 -5 -5 -5 -5 -5 -5 -5 -5 -5 -5 -5 -5 -6 -6 -6 -6 -6 -6 -6 -6 -6 -6 -6 -6 -6 -7 -7 -7 -7 -8 -8 -8 -8 -8 -8 -8 -8 -9 -9 -8 -8 -8 -8
-6 -6 -6 -6 -6 -6 -6 -6 -6 -6 -5 -5 -5 -5 -5 -5 -5 -5 -5 -5 -5 -5 -5 -5 -5 -5 -5 -5 -5 -5 -5 -6 -6 -6 -6 -6 -6 -6 -6 -6 -6 -6 -6 -6 -7 -7 -7 -7 -7 -8 -8 -8 -8 -8 -8 -8 -9 -9 -9 -9 -8 -8 -8
-6 -6 -6 -6 -6 -6 -6 -6 -6 -6 -5 -5 -5 -5 -5 -5 -5 -5 -5 -5 -5 -5 -5 -5 -5 -5 -5 -5 -5 -5 -6 -6 -6 -6 -6 -6 -6 -6 -6 -7 -7 -7 -7 -7 -7 -7 -7 -7 -7 -8 -8 -8 -8 -8 -8 -9 -9 -9 -9 -9 -8 -8 -8
-6 -6 -6 -5 -6 -6 -6 -6 -6 -6 -6 -5 -5 -5 -5 -5 -5 -5 -5 -5 -5 -5 -5 -5 -5 -5 -5 -5 -5 -6 -6 -6 -6 -6 -7 -7 -7 -7 -7 -7 -7 -7 -7 -7 -7 -7 -7 -7 -8 -8 -8 -8 -8 -8 -8 -9 -9 -9 -9 -9 -8 -8 -8
-6 -6 -6 -6 -6 -6 -6 -6 -6 -6 -6 -6 -5 -5 -5 -5 -5 -5 -5 -5 -5 -5 -5 -5 -5 -5 -5 -6 -6 -6 -6 -6 -6 -7 -7 -7 -7 -7 -7 -7 -7 -7 -7 -7 -7 -7 -7 -8 -8 -8 -8 -8 -8 -8 -8 -9 -9 -9 -9 -9 -8 -8 -8
-6 -6 -6 -6 -6 -6 -6 -6 -6 -6 -6 -6 -5 -5 -5 -5 -5 -5 -5 -5 -5 -5 -5 -5 -5 -6 -6 -6 -6 -6 -6 -6 -6 -6 -7 -7 -7 -7 -7 -8 -8 -8 -8 -8 -8 -8 -8 -8 -8 -8 -8 -8 -8 -8 -8 -9 -9 -9 -9 -9 -8 -8 -8
-6 -6 -6 -6 -6 -6 -6 -6 -7 -6 -6 -6 -6 -5 -5 -5 -5 -5 -5 -5 -5 -5 -5 -6 -6 -6 -6 -6 -6 -6 -6 -6 -6 -6 -6 -7 -7 -7 -8 -8 -8 -8 -8 -8 -8 -8 -8 -8 -8 -8 -8 -8 -8 -8 -8 -9 -9 -9 -9 -8 -8 -8 -8
-6 -6 -6 -6 -6 -6 -6 -6 -7 -7 -6 -6 -6 -5 -5 -5 -5 -5 -5 -5 -5 -5 -6 -6 -6 -6 -6 -6 -6 -6 -6 -6 -6 -6 -7 -7 -7 -7 -8 -8 -8 -8 -8 -8 -8 -8 -8 -8 -8 -8 -8 -8 -8 -8 -9 -9 -9 -9 -9 -8 -8 -8 -8
-6 -6 -6 -6 -6 -6 -6 -7 -7 -7 -6 -6 -6 -6 -6 -6 -6 -6 -6 -6 -6 -6 -6 -6 -6 -6 -6 -6 -6 -6 -6 -6 -7 -7 -7 -7 -7 -8 -8 -8 -8 -8 -8 -8 -8 -9 -9 -9 -9 -9 -9 -8 -8 -8 -9 -9 -9 -9 -9 -8 -8 -8 -8
-6 -6 -6 -6 -6 -6 -6 -7 -7 -7 -7 -6 -6 -6 -6 -6 -6 -6 -6 -6 -6 -6 -6 -6 -6 -6 -6 -6 -6 -6 -6 -7 -7 -7 -7 -7 -8 -8 -8 -8 -8 -8 -8 -8 -8 -8 -9 -9 -9 -9 -9 -8 -8 -8 -8 -9 -9 -9 -9 -8 -8 -8 -8
-6 -7 -6 -6 -6 -6 -6 -7 -7 -7 -7 -7 -6 -6 -6 -6 -6 -6 -6 -6 -6 -6 -6 -6 -7 -7 -7 -7 -6 -6 -7 -7 -7 -7 -8 -8 -8 -8 -8 -8 -8 -8 -8 -8 -8 -8 -8 -8 -8 -8 -9 -8 -8 -8 -8 -9 -9 -9 -9 -9 -9 -8 -8
-6 -7 -7 -6 -6 -6 -6 -7 -7 -7 -6 -6 -6 -6 -6 -6 -6 -6 -6 -6 -6 -7 -7 -7 -7 -7 -7 -7 -7 -7 -7 -7 -7 -7 -8 -8 -8 -8 -8 -8 -8 -8 -8 -8 -8 -7 -8 -8 -8 -8 -8 -8 -8 -8 -8 -9 -9 -9 -9 -9 -9 -9 -8
-5 -6 -7 -6 -6 -6 -6 -6 -7 -6 -6 -6 -6 -6 -6 -7 -7 -7 -7 -7 -7 -7 -7 -7 -7 -7 -7 -7 -7 -7 -7 -7 -7 -8 -8 -8 -8 -8 -8 -8 -8 -8 -8 -8 -7 -7 -7 -7 -8 -8 -8 -8 -8 -8 -8 -9 -9 -9 -9 -9 -9 -9 -8
-5 -6 -6 -6 -7 -7 -6 -7 -6 -6 -6 -6 -6 -6 -7 -7 -7 -7 -7 -7 -7 -7 -7 -7 -7 -7 -7 -7 -7 -7 -7 -8 -8 -8 -8 -8 -8 -8 -8 -8 -8 -8 -8 -8 -8 -7 -7 -7 -7 -7 -7 -7 -8 -8 -8 -9 -9 -9 -9 -9 -9 -9 -8
-5 -5 -5 -6 -6 -7 -7 -7 -7 -6 -6 -6 -6 -6 -7 -7 -7 -7 -7 -7 -7 -7 -7 -7 -7 -7 -7 -7 -7 -7 -7 -8 -8 -8 -8 -8 -8 -8 -8 -8 -8 -8 -8 -8 -8 -8 -7 -7 -7 -7 -7 -7 -8 -8 -8 -9 -9 -9 -9 -9 -9 -9 -8
-5 -5 -5 -6 -6 -6 -7 -7 -7 -7 -7 -6 -6 -6 -7 -7 -7 -7 -7 -7 -7 -7 -7 -7 -7 -7 -8 -7 -7 -7 -7 -7 -8 -8 -8 -8 -8 -8 -8 -8 -8 -8 -8 -8 -8 -8 -8 -8 -8 -8 -8 -8 -8 -8 -8 -9 -9 -9 -9 -9 -9 -9 -9
-5 -5 -5 -6 -6 -6 -6 -7 -7 -7 -7 -6 -7 -7 -7 -7 -7 -7 -7 -7 -7 -8 -8 -8 -7 -8 -8 -8 -7 -7 -7 -7 -7 -7 -8 -8 -8 -8 -8 -8 -8 -8 -8 -8 -8 -8 -8 -8 -8 -8 -8 -8 -8 -8 -8 -9 -9 -9 -9 -9 -9 -9 -9
-6 -6 -6 -6 -6 -6 -6 -6 -6 -7 -7 -6 -7 -7 -7 -6 -6 -7 -7 -7 -7 -7 -7 -7 -8 -8 -7 -7 -7 -7 -7 -7 -7 -7 -7 -8 -8 -8 -8 -8 -8 -8 -8 -8 -8 -8 -8 -8 -8 -8 -8 -8 -8 -8 -8 -9 -9 -9 -9 -9 -9 -9 -9
-5 -6 -6 -6 -6 -6 -6 -6 -6 -6 -6 -7 -7 -7 -6 -6 -6 -6 -7 -7 -7 -7 -7 -7 -8 -8 -7 -7 -7 -7 -7 -7 -7 -7 -7 -8 -8 -8 -8 -8 -8 -8 -8 -8 -8 -8 -8 -8 -8 -8 -8 -8 -8 -8 -8 -9 -9 -9 -9 -9 -9 -9 -9
-5 -6 -6 -6 -6 -6 -7 -6 -6 -6 -6 -7 -7 -6 -6 -7 -6 -6 -6 -7 -7 -7 -7 -7 -7 -7 -7 -7 -7 -7 -7 -7 -7 -7 -7 -8 -8 -8 -8 -8 -8 -8 -8 -8 -8 -8 -8 -8 -8 -8 -8 -8 -8 -8 -8 -9 -9 -9 -9 -9 -9 -9 -9
-5 -6 -6 -6 -6 -6 -7 -7 -7 -7 -7 -7 -7 -7 -7 -7 -7 -7 -7 -7 -7 -7 -7 -7 -7 -7 -7 -7 -7 -7 -8 -8 -8 -8 -8 -8 -8 -8 -8 -8 -8 -8 -8 -8 -8 -8 -8 -8 -8 -8 -8 -8 -8 -8 -8 -9 -9 -9 -9 -9 -9 -9 -9
-5 -5 -6 -7 -7 -6 -7 -7 -7 -7 -7 -7 -7 -7 -7 -7 -7 -7 -7 -7 -7 -7 -7 -7 -7 -7 -7 -8 -8 -8 -8 -8 -8 -8 -8 -8 -8 -8 -8 -8 -8 -8 -8 -8 -8 -8 -8 -8 -8 -8 -8 -8 -8 -8 -9 -9 -9 -9 -9 -9 -9 -9 -9
-5 -5 -6 -7 -7 -7 -7 -7 -7 -7 -7 -7 -7 -7 -7 -7 -7 -7 -7 -7 -7 -7 -7 -7 -7 -7 -8 -8 -8 -8 -8 -8 -8 -8 -8 -8 -8 -8 -8 -8 -8 -8 -8 -8 -8 -8 -8 -8 -8 -8 -8 -8 -8 -8 -9 -9 -9 -9 -9 -9 -9 -9 -9
-5 -5 -5 -6 -7 -7 -7 -7 -7 -7 -7 -7 -7 -7 -7 -7 -7 -7 -7 -7 -7 -7 -7 -7 -7 -7 -8 -8 -8 -8 -8 -8 -8 -8 -8 -8 -8 -8 -8 -8 -8 -8 -8 -8 -8 -8 -8 -8 -8 -8 -8 -8 -8 -8 -8 -9 -9 -9 -9 -9 -9 -9 -9
-5 -5 -5 -6 -7 -7 -7 -7 -7 -7 -7 -7 -7 -7 -7 -7 -8 -8 -8 -7 -7 -7 -7 -7 -7 -8 -8 -8 -8 -8 -8 -8 -7 -8 -8 -8 -8 -8 -8 -8 -8 -8 -8 -8 -8 -8 -8 -8 -8 -8 -8 -8 -8 -8 -8 -9 -9 -9 -9 -9 -9 -9 -9
-6 -6 -6 -6 -6 -7 -7 -7 -7 -7 -7 -7 -7 -7 -7 -8 -8 -8 -8 -8 -7 -7 -7 -7 -7 -8 -8 -8 -8 -8 -8 -8 -8 -8 -8 -8 -8 -8 -8 -8 -8 -8 -8 -8 -8 -8 -8 -8 -8 -8 -9 -8 -8 -8 -8 -8 -9 -9 -9 -9 -9 -9 -9
-6 -6 -6 -6 -6 -7 -7 -7 -8 -8 -8 -7 -7 -8 -8 -8 -8 -8 -8 -8 -8 -7 -7 -7 -8 -8 -8 -8 -8 -8 -8 -8 -8 -8 -8 -8 -8 -8 -8 -8 -8 -8 -8 -8 -8 -8 -7 -8 -8 -9 -9 -9 -8 -8 -8 -8 -9 -9 -9 -9 -9 -9 -9
-6 -6 -6 -6 -6 -6 -7 -7 -7 -8 -8 -8 -8 -8 -7 -7 -8 -8 -7 -7 -7 -7 -7 -7 -8 -8 -8 -8 -8 -8 -8 -8 -8 -8 -8 -8 -8 -8 -8 -8 -8 -8 -8 -7 -8 -8 -8 -7 -8 -8 -9 -9 -9 -8 -8 -8 -8 -9 -9 -9 -9 -9 -9
-7 -6 -6 -6 -6 -7 -7 -7 -7 -7 -7 -7 -7 -7 -7 -7 -7 -7 -7 -7 -7 -7 -7 -7 -7 -8 -8 -8 -8 -8 -8 -8 -8 -8 -8 -8 -8 -8 -8 -8 -8 -8 -8 -7 -8 -8 -8 -8 -8 -8 -8 -9 -9 -9 -9 -9 -9 -9 -9 -9 -9 -9 -9
-7 -7 -7 -7 -7 -7 -7 -7 -7 -7 -7 -7 -7 -7 -7 -7 -7 -7 -7 -7 -7 -7 -7 -7 -7 -7 -7 -8 -8 -8 -8 -8 -8 -8 -8 -8 -8 -8 -8 -8 -8 -8 -8 -7 -8 -9 -9 -8 -8 -8 -8 -9 -9 -9 -9 -9 -9 -9 -9 -9 -9 -9 -9
-8 -8 -7 -7 -7 -7 -7 -7 -7 -7 -7 -7 -7 -7 -7 -7 -7 -7 -7 -7 -7 -7 -7 -8 -8 -8 -8 -8 -8 -8 -8 -8 -9 -9 -9 -8 -8 -8 -8 -8 -8 -8 -9 -9 -9 -9 -9 -9 -9 -8 -8 -8 -8 -9 -9 -9 -9 -9 -9 -9 -9 -9 -9
-8 -8 -8 -7 -7 -7 -7 -7 -7 -7 -7 -8 -8 -8 -8 -8 -8 -8 -8 -8 -8 -8 -8 -8 -8 -8 -8 -8 -8 -8 -8 -8 -8 -8 -8 -8 -8 -8 -8 -8 -8 -8 -9 -9 -9 -9 -9 -9 -9 -9 -8 -8 -8 -9 -9 -9 -9 -9 -9 -9 -9 -9 -9
-9 -9 -8 -8 -8 -7 -7 -7 -7 -7 -8 -8 -8 -8 -8 -8 -8 -8 -8 -8 -8 -8 -8 -8 -8 -8 -8 -8 -8 -8 -8 -8 -8 -8 -8 -8 -8 -8 -8 -8 -8 -8 -9 -9 -9 -9 -9 -9 -9 -9 -9 -9 -9 -9 -9 -9 -9 -9 -9 -9 -9 -9 -10
-9 -9 -9 -8 -8 -8 -7 -7 -7 -7 -7 -8 -8 -8 -8 -8 -8 -8 -8 -8 -8 -8 -8 -8 -8 -8 -8 -8 -7 -7 -7 -7 -7 -8 -8 -8 -8 -8 -8 -8 -8 -8 -8 -9 -9 -9 -9 -9 -9 -9 -9 -9 -9 -9 -9 -9 -9 -9 -10 -10 -10 -10 -10
-9 -9 -9 -9 -8 -8 -8 -8 -8 -8 -8 -8 -8 -8 -8 -8 -8 -8 -8 -8 -8 -8 -8 -8 -8 -7 -7 -7 -7 -7 -7 -7 -7 -7 -7 -7 -7 -7 -7 -7 -7 -8 -8 -8 -8 -8 -9 -9 -9 -9 -9 -9 -9 -9 -9 -9 -9 -9 -10 -9 -9 -10 -10
-8 -8 -8 -9 -8 -8 -8 -8 -8 -8 -8 -8 -8 -8 -7 -7 -7 -7 -7 -8 -8 -8 -8 -8 -7 -7 -7 -7 -7 -7 -7 -7 -7 -7 -7 -7 -7 -7 -7 -7 -7 -7 -7 -8 -8 -8 -8 -8 -9 -9 -9 -10 -9 -9 -8 -9 -9 -9 -9 -9 -9 -9 -9
Height
5875 5876 5877 5879 5882 5884 5886 5887 5889 5890 5891 5892 5894 5895 5896 5898 5899 5901 5902 5903 5904 5905 5906 5907 5908 5909 5910 5910 5911 5911 5912 5912 5913 5914 5914 5915 5915 5916 5917 5917 5919 5919 5920 5921 5921 5922 5922 5922 5922 5922 5922 5922 5922 5923 5923 5922 5922 5921 5921 5920 5920 5919 5918
5874 5875 5876 5877 5879 5881 5884 5885 5886 5888 5889 5891 5892 5893 5894 5896 5897 5899 5900 5901 5902 5903 5904 5905 5906 5907 5908 5908 5909 5909 5910 5911 5911 5912 5913 5913 5914 5914 5915 5916 5917 5918 5918 5919 5920 5920 5921 5921 5921 5921 5921 5920 5921 5921 5921 5921 5920 5920 5920 5919 5919 5918 5918
5873 5874 5876 5877 5878 5880 5881 5883 5884 5885 5887 5888 5890 5891 5892 5894 5896 5897 5898 5899 5900 5900 5902 5903 5904 5905 5905 5906 5907 5907 5908 5909 5909 5910 5911 5911 5912 5912 5913 5914 5915 5916 5917 5918 5918 5919 5919 5919 5919 5920 5919 5919 5919 5919 5919 5919 5919 5919 5919 5918 5918 5917 5917
5872 5873 5875 5876 5877 5878 5879 5880 5881 5882 5884 5886 5888 5889 5890 5892 5893 5894 5895 5896 5897 5898 5900 5901 5901 5902 5903 5903 5904 5905 5906 5906 5907 5908 5909 5909 5910 5910 5911 5912 5913 5915 5915 5916 5917 5917 5918 5918 5918 5918 5918 5918 5918 5918 5918 5918 5918 5918 5918 5917 5917 5916 5916
5870 5871 5873 5874 5875 5876 5877 5878 5878 5880 5881 5883 5885 5887 5888 5889 5890 5891 5892 5893 5895 5896 5897 5898 5898 5900 5900 5901 5902 5902 5903 5904 5904 5905 5906 5907 5907 5908 5910 5911 5911 5913 5913 5913 5914 5915 5916 5916 5916 5916 5916 5916 5916 5916 5917 5917 5916 5916 5916 5916 5915 5915 5915
5869 5869 5871 5872 5873 5874 5875 5876 5877 5878 5879 5880 5882 5884 5885 5886 5887 5888 5890 5891 5892 5893 5894 5895 5896 5898 5898 5899 5899 5900 5900 5901 5902 5902 5903 5904 5905 5906 5908 5908 5909 5910 5911 5911 5912 5913 5914 5914 5914 5914 5915 5915 5915 5915 5915 5915 5915 5915 5915 5914 5914 5914 5914
5867 5867 5869 5870 5871 5872 5874 5875 5875 5876 5877 5877 5879 5880 5881 5882 5884 5886 5887 5888 5889 5890 5892 5893 5895 5895 5896 5896 5897 5897 5898 5898 5899 5899 5900 5901 5902 5904 5905 5905 5906 5907 5908 5908 5909 5910 5911 5911 5912 5912 5913 5913 5913 5913 5913 5913 5913 5913 5913 5913 5913 5913 5912
5863 5864 5866 5867 5868 5870 5871 5872 5873 5873 5874 5874 5875 5876 5878 5879 5881 5883 5884 5886 5887 5888 5889 5891 5892 5893 5893 5894 5894 5895 5895 5895 5896 5896 5897 5898 5900 5901 5902 5902 5903 5903 5904 5906 5907 5907 5908 5909 5909 5910 5911 5911 5911 5912 5912 5912 5911 5911 5912 5911 5911 5911 5911
5860 5861 5862 5864 5865 5867 5868 5869 5870 5870 5870 5871 5872 5874 5875 5877 5879 5880 5882 5883 5884 5885 5887 5889 5890 5890 5891 5891 5892 5892 5893 5893 5894 5894 5895 5896 5897 5898 5899 5899 5899 5899 5901 5902 5903 5904 5905 5906 5906 5907 5909 5909 5910 5910 5910 5910 5910 5910 5910 5910 5909 5909 5909
5857 5859 5860 5861 5862 5863 5864 5865 5866 5866 5867 5868 5869 5871 5873 5874 5876 5878 5879 5880 5881 5883 5885 5886 5887 5888 5889 5889 5890 5890 5890 5891 5892 5892 5892 5893 5894 5895 5895 5896 5896 5896 5898 5899 5900 5901 5902 5903 5904 5905 5906 5907 5908 5908 5908 5908 5908 5909 5908 5908 5908 5907 5907
5853 5855 5857 5858 5859 5860 5861 5862 5862 5862 5864 5865 5867 5868 5870 5872 5874 5875 5877 5878 5879 5881 5882 5883 5884 5885 5887 5887 5888 5888 5889 5889 5889 5890 5890 5891 5891 5892 5892 5893 5893 5894 5894 5895 5896 5897 5898 5899 5901 5902 5904 5905 5905 5906 5906 5907 5907 5907 5907 5907 5906 5906 5905
5848 5851 5853 5854 5856 5857 5859 5860 5860 5860 5861 5862 5864 5866 5868 5870 5871 5873 5874 5876 5877 5879 5879 5881 5882 5883 5884 5885 5886 5886 5887 5887 5888 5888 5888 5889 5889 5889 5890 5890 5891 5891 5892 5892 5893 5894 5895 5896 5898 5899 5901 5902 5902 5903 5904 5905 5905 5905 5905 5905 5905 5904 5904
5843 5846 5849 5851 5853 5855 5856 5858 5858 5858 5859 5860 5862 5863 5865 5867 5869 5870 5871 5873 5875 5876 5877 5878 5879 5881 5882 5883 5884 5884 5885 5885 5886 5886 5886 5887 5887 5887 5888 5888 5889 5889 5890 5890 5890 5892 5892 5893 5894 5896 5897 5898 5899 5901 5902 5903 5903 5903 5903 5903 5903 5903 5902
5839 5843 5845 5848 5850 5852 5854 5855 5856 5857 5857 5858 5859 5861 5862 5864 5865 5867 5868 5870 5872 5873 5875 5876 5877 5878 5879 5880 5881 5882 5883 5884 5884 5884 5885 5885 5885 5885 5886 5886 5887 5887 5887 5888 5889 5889 5890 5890 5891 5892 5894 5895 5896 5898 5899 5900 5900 5901 5901 5901 5901 5901 5900
5836 5839 5842 5844 5846 5848 5851 5852 5854 5855 5855 5856 5857 5858 5860 5861 5862 5864 5866 5868 5869 5871 5873 5874 5875 5876 5877 5878 5879 5881 5881 5881 5881 5882 5883 5883 5883 5884 5884 5884 5885 5885 5885 5886 5887 5887 5887 5888 5888 5889 5891 5892 5893 5895 5896 5897 5897 5898 5898 5898 5898 5898 5897
5833 5835 5837 5840 5843 5845 5847 5849 5851 5852 5853 5854 5855 5856 5857 5859 5860 5862 5864 5866 5867 5869 5871 5872 5873 5874 5875 5876 5878 5878 5878 5879 5879 5880 5880 5881 5882 5882 5882 5882 5883 5883 5883 5884 5885 5885 5885 5885 5886 5887 5889 5890 5891 5892 5893 5894 5894 5894 5894 5895 5895 5895 5895
5830 5832 5834 5837 5840 5842 5844 5846 5848 5850 5851 5852 5853 5855 5856 5857 5858 5860 5862 5863 5865 5867 5868 5869 5870 5871 5873 5874 5875 5875 5876 5876 5877 5878 5878 5879 5880 5880 5880 5880 5881 5881 5882 5882 5882 5883 5883 5883 5884 5886 5887 5888 5888 5889 5889 5890 5891 5891 5891 5892 5892 5892 5891
5827 5829 5831 5834 5836 5839 5841 5843 5845 5847 5848 5850 5851 5853 5854 5855 5856 5857 5859 5861 5863 5864 5865 5866 5867 5868 5870 5872 5872 5872 5873 5874 5875 5875 5876 5877 5877 5878 5878 5878 5879 5879 5879 5880 5880 5880 5881 5882 5883 5884 5884 5885 5886 5886 5887 5888 5888 5888 5888 5889 5889 5888 5887
5824 5826 5828 5830 5832 5835 5837 5839 5842 5844 5846 5848 5849 5850 5851 5853 5853 5855 5857 5858 5860 5861 5861 5862 5864 5865 5867 5869 5869 5869 5870 5871 5872 5873 5874 5875 5875 5875 5875 5876 5876 5877 5877 5877 5878 5878 5878 5879 5880 5881 5882 5883 5883 5883 5884 5885 5885 5885 5885 5886 5885 5884 5883
5819 5822 5824 5826 5829 5831 5833 5836 5838 5841 5843 5845 5846 5847 5848 5850 5851 5852 5854 5855 5855 5856 5857 5859 5861 5862 5864 5865 5866 5866 5867 5868 5869 5870 5871 5872 5872 5872 5872 5873 5874 5874 5875 5875 5875 5875 5876 5876 5877 5878 5879 5880 5880 5881 5881 5882 5882 5882 5882 5882 5881 5879 5878
5815 5817 5820 5822 5825 5828 5830 5832 5834 5837 5840 5842 5843 5843 5844 5846 5848 5849 5850 5851 5852 5853 5854 5855 5857 5858 5860 5861 5862 5863 5864 5864 5866 5867 5868 5868 5868 5869 5870 5870 5871 5871 5871 5872 5872 5872 5873 5873 5873 5874 5875 5876 5877 5877 5878 5878 5879 5879 5879 5878 5877 5875 5873
5811 5813 5816 5818 5821 5824 5826 5828 5830 5833 5836 5838 5839 5839 5841 5842 5844 5845 5846 5847 5848 5849 5850 5852 5853 5855 5856 5857 5859 5860 5860 5861 5862 5863 5864 5865 5865 5865 5866 5867 5867 5868 5868 5868 5869 5869 5869 5870 5870 5870 5871 5872 5873 5874 5875 5875 5875 5875 5875 5875 5873 5870 5869
5807 5809 5811 5814 5817 5820 5822 5824 5827 5829 5831 5833 5835 5836 5837 5838 5839 5841 5842 5843 5844 5845 5846 5847 5849 5851 5852 5854 5855 5856 5857 5858 5858 5859 5860 5860 5861 5861 5862 5863 5863 5864 5863 5864 5865 5865 5866 5866 5866 5866 5867 5867 5868 5870 5871 5871 5871 5872 5871 5870 5869 5866 5866
5804 5805 5807 5809 5812 5815 5818 5820 5823 5825 5826 5829 5831 5833 5834 5835 5836 5837 5838 5839 5840 5841 5842 5844 5845 5847 5848 5849 5850 5852 5852 5853 5853 5854 5855 5855 5856 5856 5857 5857 5858 5858 5859 5859 5860 5861 5861 5861 5862 5862 5863 5863 5864 5866 5867 5867 5867 5867 5867 5866 5864 5863 5864
5801 5802 5803 5805 5807 5810 5813 5816 5818 5820 5822 5824 5826 5828 5830 5831 5832 5833 5834 5835 5837 5837 5838 5840 5842 5843 5844 5845 5846 5847 5848 5848 5848 5849 5850 5850 5850 5851 5850 5851 5851 5851 5852 5853 5854 5856 5856 5856 5857 5858 5858 5859 5860 5860 5861 5862 5862 5862 5862 5861 5861 5860 5860
5797 5798 5799 5801 5803 5805 5808 5811 5813 5815 5817 5819 5821 5823 5825 5826 5828 5829 5830 5831 5832 5833 5835 5837 5838 5839 5839 5840 5840 5841 5843 5843 5844 5844 5844 5844 5844 5844 5844 5845 5845 5845 5844 5845 5847 5849 5851 5851 5852 5852 5853 5854 5854 5854 5856 5857 5857 5858 5858 5857 5857 5856 5857
5792 5794 5796 5797 5799 5801 5804 5806 5809 5811 5812 5814 5816 5817 5819 5821 5823 5824 5825 5826 5827 5830 5832 5833 5834 5834 5833 5834 5835 5837 5837 5838 5839 5840 5840 5840 5839 5839 5839 5840 5840 5838 5838 5839 5841 5842 5844 5845 5846 5847 5847 5847 5848 5849 5850 5851 5852 5853 5853 5852 5852 5852 5852
5787 5789 5791 5793 5795 5797 5799 5802 5804 5806 5808 5810 5812 5813 5815 5816 5818 5819 5820 5821 5823 5825 5827 5827 5828 5828 5828 5829 5830 5831 5832 5833 5834 5835 5835 5835 5834 5833 5835 5836 5835 5834 5834 5835 5836 5837 5837 5838 5840 5841 5841 5841 5841 5843 5844 5845 5846 5847 5847 5847 5847 5847 5848
5783 5784 5786 5788 5790 5792 5794 5797 5799 5801 5803 5805 5807 5809 5810 5812 5813 5815 5816 5817 5818 5819 5819 5820 5822 5823 5823 5824 5825 5826 5827 5828 5828 5829 5829 5829 5828 5828 5829 5829 5829 5829 5829 5830 5830 5831 5832 5832 5833 5834 5835 5835 5836 5837 5838 5838 5839 5841 5841 5841 5841 5842 5843
5778 5779 5782 5784 5786 5788 5790 5792 5794 5796 5798 5800 5802 5803 5805 5806 5808 5809 5811 5812 5813 5813 5814 5815 5816 5817 5818 5819 5820 5821 5821 5822 5822 5822 5822 5823 5822 5823 5823 5823 5822 5822 5823 5824 5824 5825 5826 5826 5826 5826 5827 5829 5831 5832 5832 5832 5833 5834 5834 5834 5835 5836 5837
5773 5775 5777 5779 5781 5783 5785 5787 5790 5792 5793 5795 5796 5798 5800 5801 5802 5803 5805 5806 5807 5808 5809 5810 5811 5811 5812 5813 5814 5815 5815 5816 5815 5815 5816 5816 5816 5816 5817 5818 5817 5816 5816 5816 5817 5817 5818 5819 5818 5818 5820 5822 5824 5825 5826 5827 5827 5828 5827 5827 5828 5830 5831
5768 5771 5773 5774 5776 5779 5780 5783 5785 5787 5788 5790 5791 5793 5794 5795 5796 5798 5799 5800 5801 5802 5803 5804 5805 5806 5806 5807 5807 5808 5808 5808 5808 5809 5809 5809 5809 5809 5810 5810 5810 5809 5808 5807 5807 5809 5811 5812 5812 5812 5812 5814 5816 5817 5818 5819 5820 5821 5820 5821 5822 5823 5824
5763 5766 5768 5770 5772 5774 5776 5778 5780 5781 5784 5785 5786 5788 5789 5790 5791 5792 5793 5794 5795 5796 5797 5798 5799 5799 5800 5800 5801 5801 5801 5801 5801 5802 5801 5801 5801 5801 5802 5802 5802 5801 5800 5798 5799 5801 5803 5804 5805 5805 5806 5808 5810 5810 5810 5811 5812 5813 5814 5815 5815 5816 5818
5758 5760 5763 5765 5767 5769 5771 5773 5775 5776 5778 5780 5781 5782 5783 5784 5785 5786 5787 5789 5790 5791 5791 5792 5793 5793 5794 5794 5794 5794 5794 5794 5794 5794 5794 5793 5793 5793 5793 5794 5793 5793 5792 5792 5793 5794 5795 5795 5796 5798 5799 5800 5801 5802 5803 5802 5803 5805 5807 5808 5809 5810 5811
5753 5755 5758 5761 5763 5765 5767 5768 5770 5771 5773 5774 5775 5776 5777 5778 5779 5780 5781 5783 5784 5785 5785 5786 5786 5787 5787 5787 5787 5787 5787 5787 5787 5786 5786 5786 5785 5784 5784 5785 5784 5784 5785 5785 5785 5785 5786 5786 5786 5788 5789 5790 5790 5792 5794 5794 5795 5797 5799 5799 5800 5801 5802
5748 5750 5753 5755 5757 5760 5762 5763 5764 5766 5767 5768 5769 5770 5771 5772 5772 5773 5775 5775 5776 5778 5778 5779 5779 5780 5779 5780 5779 5779 5778 5778 5778 5778 5777 5777 5776 5776 5775 5774 5774 5774 5775 5776 5777 5777 5777 5777 5778 5778 5779 5779 5781 5783 5784 5784 5786 5787 5787 5788 5789 5790 5791
5744 5746 5748 5749 5751 5753 5755 5756 5758 5760 5761 5762 5763 5763 5764 5765 5765 5766 5767 5768 5769 5770 5771 5772 5772 5772 5772 5772 5772 5771 5771 5770 5769 5769 5768 5767 5767 5765 5764 5763 5764 5764 5764 5765 5766 5767 5768 5769 5769 5769 5768 5769 5771 5773 5772 5772 5773 5773 5774 5776 5777 5778 5780
5739 5741 5742 5744 5746 5747 5749 5750 5752 5753 5755 5756 5757 5757 5758 5758 5758 5759 5760 5761 5762 5763 5763 5764 5764 5764 5765 5765 5765 5765 5764 5763 5762 5761 5760 5759 5758 5756 5754 5752 5753 5753 5752 5753 5753 5754 5755 5757 5758 5758 5759 5760 5760 5761 5762 5763 5763 5762 5764 5767 5767 5768 5772
Wind_Speed
23 21 19 17 14 12 11 12 14 14 15 15 15 16 17 17 17 16 15 15 14 15 15 14 15 15 16 16 16 17 16 16 16 16 18 19 18 17 17 16 16 15 15 15 14 13 12 11 11 10 10 11 9 8 7 5 5 5 6 8 10 12 13
23 22 20 19 17 13 11 12 14 15 16 17 18 19 19 18 17 16 16 16 16 17 16 16 16 17 17 18 19 19 19 19 18 18 18 19 19 18 18 17 16 16 16 16 15 14 13 13 13 12 11 11 10 9 8 6 5 5 6 8 11 12 13
22 20 19 18 15 13 11 11 14 16 17 18 20 21 20 19 18 17 18 18 18 18 18 17 17 18 19 20 20 21 21 21 20 19 19 20 20 20 20 19 18 17 17 17 16 15 14 15 14 14 13 12 11 10 8 6 5 5 7 9 10 11 13
21 20 19 18 16 15 15 15 16 17 18 19 20 21 21 20 19 20 20 20 19 19 17 17 18 19 20 20 20 21 22 23 22 22 21 21 22 22 22 21 20 19 18 18 17 16 16 16 16 15 14 13 13 11 9 7 6 6 7 8 10 11 12
22 22 22 21 20 19 18 18 18 17 18 20 21 22 22 22 22 22 23 21 19 19 18 18 18 18 17 17 17 18 20 22 23 23 23 23 24 24 23 22 22 21 20 20 19 18 18 17 17 17 16 15 14 13 10 8 7 6 7 8 9 10 12
22 24 23 20 19 19 18 18 17 16 18 20 22 23 23 24 24 24 24 22 20 19 18 17 16 15 15 15 15 16 17 19 21 23 24 24 25 25 24 24 25 24 22 22 20 19 19 19 19 18 18 17 16 14 12 9 8 7 7 8 9 10 12
19 21 22 19 17 17 17 17 17 17 17 20 23 25 25 26 26 25 26 24 21 20 18 16 16 15 15 15 16 16 16 17 19 21 23 25 26 25 25 26 27 26 25 23 22 21 20 20 20 19 19 18 18 16 13 11 9 8 8 8 9 10 11
18 18 20 20 17 16 15 15 17 16 16 19 23 25 26 26 26 26 26 24 22 20 17 16 16 16 16 17 16 15 16 17 18 19 22 23 25 26 27 28 28 28 27 24 23 22 21 22 21 20 19 19 19 17 15 13 11 9 8 8 9 9 11
22 21 23 21 19 18 16 14 14 14 14 17 21 24 25 25 26 26 25 24 22 19 17 17 17 18 18 17 16 16 16 16 16 17 19 20 22 25 27 29 29 30 28 25 24 23 22 23 22 21 20 20 20 18 16 14 13 11 9 9 9 10 11
25 24 25 23 22 20 18 16 16 16 15 15 18 22 23 24 25 25 25 24 23 19 17 18 19 19 19 18 17 16 15 14 14 15 15 17 19 22 25 28 29 29 28 26 25 24 23 23 23 21 20 20 20 19 17 16 15 13 11 10 10 10 11
27 27 27 26 25 23 21 20 20 19 16 14 15 18 21 22 23 23 23 23 21 19 18 19 20 20 19 18 17 15 14 13 13 13 13 14 16 18 21 24 26 27 27 26 25 25 24 24 23 22 21 21 21 21 19 18 16 14 12 11 10 10 11
29 30 30 29 27 26 23 21 21 21 20 17 15 15 18 21 22 21 20 19 19 20 20 21 21 20 19 18 17 14 13 13 13 12 12 12 13 15 18 20 23 24 25 25 25 25 25 24 24 23 21 22 23 22 21 19 17 16 14 12 11 11 11
32 33 32 30 29 28 25 23 23 24 23 20 18 17 17 18 19 19 17 17 18 20 21 22 21 20 19 18 17 15 14 14 13 13 13 13 13 15 16 18 20 21 23 24 24 24 24 25 25 24 23 24 24 23 22 20 18 17 15 14 13 12 12
32 34 32 30 30 30 28 26 26 26 25 23 22 20 17 17 17 16 16 16 18 21 22 21 20 19 18 18 17 16 15 16 15 14 14 14 15 16 16 17 18 19 21 23 23 23 23 25 26 25 25 25 25 24 22 20 19 18 17 16 15 14 13
32 35 34 32 31 31 31 30 29 28 27 25 24 21 17 15 16 16 17 17 19 21 21 21 20 19 19 19 18 17 17 18 18 17 16 16 16 16 17 17 18 19 20 21 21 22 23 24 26 26 26 25 25 24 23 21 19 19 19 18 17 16 15
32 35 35 32 31 32 32 31 30 29 27 26 25 22 18 16 16 18 19 19 20 20 20 21 20 19 20 19 18 18 20 21 20 20 19 19 18 18 18 18 18 19 20 21 21 21 23 24 26 25 25 25 25 24 23 21 20 20 21 20 19 18 17
30 33 33 31 31 32 33 31 29 28 29 28 26 23 21 18 17 19 21 22 22 22 22 22 21 20 19 18 18 21 23 23 23 22 21 21 21 21 22 21 20 19 20 21 22 22 23 24 25 25 25 25 26 26 24 22 20 21 23 22 21 21 19
30 31 30 30 31 33 33 32 30 30 30 27 24 24 24 21 19 20 23 23 23 23 24 24 22 20 19 17 19 23 24 25 25 24 23 23 23 24 24 24 23 22 21 21 22 23 24 24 25 26 26 26 27 27 25 22 22 23 24 23 23 22 21
30 31 30 30 31 32 33 33 32 32 31 27 26 27 27 24 22 21 21 23 25 26 26 26 24 22 20 20 21 24 25 26 27 26 25 25 25 26 27 27 25 24 24 22 22 23 24 25 27 28 28 27 27 28 26 24 23 24 25 24 24 25 25
32 33 33 31 31 32 32 32 32 32 31 29 30 32 30 28 26 23 21 23 26 28 29 30 28 26 24 23 23 24 25 27 27 27 27 27 28 29 29 28 27 26 26 25 25 24 24 25 28 29 29 28 27 29 28 26 26 26 26 26 26 27 29
33 35 36 34 32 33 33 32 30 30 31 31 34 36 33 30 30 28 26 26 26 27 29 30 30 29 28 27 26 25 25 26 27 27 28 29 30 30 30 30 29 28 28 27 27 26 24 25 27 29 30 29 28 30 29 28 28 28 27 27 28 30 33
33 35 37 36 34 34 35 34 30 29 31 34 37 37 34 32 30 28 27 27 27 28 28 29 31 31 30 29 28 26 25 25 26 27 28 29 30 31 30 31 31 31 30 29 28 28 26 26 27 28 29 29 29 30 30 30 30 29 29 29 30 34 36
34 35 38 39 37 36 37 38 35 31 31 34 36 36 36 35 32 30 29 30 30 30 28 28 30 30 30 30 30 29 26 25 26 28 29 30 31 31 31 32 33 34 34 33 31 29 29 28 27 27 28 29 30 31 31 32 31 31 31 31 32 36 36
36 36 39 42 41 39 40 41 39 37 35 34 34 35 36 36 35 34 33 31 29 28 26 27 29 31 31 31 31 31 30 30 32 32 32 33 34 34 34 34 35 37 38 37 34 32 31 30 29 29 29 28 29 31 33 34 33 33 34 34 35 37 36
37 37 39 42 44 44 43 43 43 42 40 38 37 37 37 38 38 36 33 30 29 29 28 28 30 32 33 33 34 35 35 35 36 36 36 36 37 37 38 38 39 41 41 41 39 36 35 34 32 31 30 29 29 32 35 36 36 36 36 36 37 37 36
38 39 40 42 44 45 46 46 44 44 44 43 41 39 37 37 37 35 33 32 32 31 30 30 31 33 35 37 39 39 38 38 38 37 38 39 39 40 41 41 41 43 44 44 42 40 38 37 36 34 33 32 32 33 36 38 39 38 38 38 39 38 37
38 39 40 42 44 45 45 45 43 42 42 42 41 39 36 35 34 34 35 35 35 33 32 32 34 37 39 41 41 40 40 41 41 40 41 42 43 43 43 42 42 45 46 44 42 43 43 41 40 39 37 36 35 35 37 40 41 40 40 40 40 40 37
38 38 40 42 44 46 45 43 41 41 41 41 40 40 39 37 36 36 36 37 37 35 34 35 37 38 40 41 41 41 42 43 43 42 42 44 46 47 45 42 43 47 48 44 41 42 45 45 44 43 41 40 39 37 38 41 42 42 42 43 43 41 38
38 38 40 42 44 47 48 45 43 42 42 42 42 42 42 42 41 40 39 39 39 39 39 40 40 40 42 43 43 43 44 44 44 43 43 45 47 47 46 45 46 48 49 48 48 47 47 49 49 47 45 44 42 40 40 43 44 43 44 46 45 43 40
38 38 39 41 43 46 48 49 48 46 45 45 46 45 45 46 46 46 45 44 44 45 45 44 44 44 45 45 45 44 44 45 46 46 46 47 48 48 48 49 51 51 49 49 49 48 47 50 53 52 49 47 46 44 43 45 46 46 48 48 47 45 42
39 39 39 40 43 44 46 48 49 49 50 50 49 49 49 49 50 50 50 49 49 50 49 49 49 49 49 48 48 47 46 46 47 48 49 50 50 51 50 50 51 52 50 48 48 49 48 50 54 56 54 49 47 47 47 47 49 50 51 51 50 47 45
42 41 40 41 41 42 44 45 47 49 50 50 50 50 50 50 51 51 52 51 51 51 50 51 51 50 50 50 49 48 48 48 49 51 52 53 53 53 52 52 53 55 54 54 55 55 52 50 52 57 58 54 51 51 50 50 52 54 54 54 53 51 49
44 42 42 42 41 41 41 42 44 45 46 47 48 48 49 49 50 49 49 48 47 46 47 47 47 48 48 49 49 49 50 51 51 53 54 56 56 56 55 56 57 58 59 60 60 58 56 54 53 53 55 55 53 53 53 53 54 55 56 56 56 54 52
44 43 43 43 43 42 41 41 41 42 42 42 42 43 44 46 46 46 46 45 44 44 45 45 46 47 48 49 50 51 52 53 53 54 55 56 57 57 57 57 57 57 58 59 60 59 59 59 56 53 53 54 55 56 57 57 57 57 57 57 58 57 55
44 44 43 43 43 43 43 44 44 43 43 42 42 42 43 44 45 46 46 47 47 47 47 47 48 49 49 50 50 51 52 53 54 55 55 56 58 59 59 59 59 58 58 58 59 61 62 63 61 57 55 56 58 59 61 61 61 60 59 60 61 59 58
45 44 44 44 44 43 44 45 45 45 45 44 44 45 46 47 48 49 50 50 51 50 50 50 50 50 51 50 50 51 52 53 53 55 56 57 59 60 62 63 63 63 62 61 61 61 63 65 65 63 63 62 62 63 65 65 64 63 63 64 64 64 64
49 48 48 48 47 47 46 46 46 46 46 46 46 47 48 50 51 52 53 53 53 53 52 51 51 51 50 49 49 49 50 52 54 55 56 58 60 62 65 66 67 66 67 66 65 64 64 65 66 68 69 68 67 68 71 71 71 70 70 70 69 70 69
53 53 53 52 52 52 51 50 50 50 50 50 50 50 51 53 54 55 56 55 54 54 53 52 51 51 50 49 49 49 49 52 54 55 56 58 60 63 66 68 69 70 70 70 70 70 69 68 68 69 70 70 70 71 72 73 72 71 71 71 73 73 69
Wind_Direction
176 179 182 188 200 213 221 222 220 220 222 220 218 222 228 230 231 232 233 235 237 237 238 234 230 226 223 224 229 234 237 239 241 241 240 240 242 245 244 240 239 242 246 248 250 255 263 269 269 262 250 249 256 255 253 271 298 315 326 332 336 341 349
185 188 188 188 191 197 213 226 225 221 222 223 224 226 230 234 236 237 238 239 241 244 245 244 242 239 235 234 235 236 238 240 240 240 242 243 244 246 245 243 242 245 248 253 257 260 262 265 269 266 253 249 252 250 250 266 286 301 315 324 331 340 349
193 192 190 189 191 195 209 227 232 228 224 224 227 230 233 236 239 241 241 241 242 245 249 250 249 247 245 245 245 243 242 242 242 241 242 244 244 243 244 245 246 249 253 257 259 258 257 262 269 269 258 249 248 247 249 260 273 289 306 318 327 337 346
199 196 196 196 197 202 211 221 229 231 228 224 225 231 235 237 240 243 243 243 244 248 251 250 248 248 248 249 249 247 245 243 242 241 241 244 245 245 246 248 250 253 255 257 258 257 258 262 267 269 263 251 245 244 246 252 262 278 297 311 322 333 342
207 204 204 205 204 208 216 221 224 229 233 229 225 228 233 236 239 243 245 245 246 249 249 247 249 251 252 253 251 250 247 244 242 241 241 242 245 248 248 250 252 253 254 256 258 259 259 260 262 267 266 255 246 244 244 247 255 270 290 304 316 328 338
217 215 215 213 209 213 221 226 226 228 233 233 229 228 230 234 238 243 247 248 248 248 247 248 253 255 254 253 252 252 251 249 245 243 242 242 245 248 249 250 252 253 254 255 257 257 258 258 259 264 267 258 249 246 245 246 250 261 280 296 309 323 334
225 220 216 210 204 207 217 227 230 229 233 234 230 228 228 231 235 239 244 246 247 247 246 249 253 253 253 252 251 252 252 251 248 244 243 243 244 246 248 250 253 254 255 256 257 256 256 256 256 261 265 259 250 248 248 249 251 257 272 288 302 317 328
226 210 200 195 192 197 207 224 232 231 233 234 231 228 228 231 233 237 242 245 246 246 245 247 250 251 252 252 253 254 253 252 251 249 247 245 244 246 247 249 251 253 255 255 255 254 252 252 253 258 263 259 252 251 251 252 254 259 270 283 296 311 322
226 208 197 194 194 197 201 213 228 233 235 235 231 228 228 230 233 237 241 245 246 245 243 244 247 248 250 253 256 258 257 257 258 256 254 250 248 246 247 248 250 253 254 253 252 251 249 249 252 256 259 257 252 251 252 253 255 259 267 278 290 306 318
232 216 205 203 202 202 203 206 217 228 233 234 232 231 230 231 233 236 241 245 246 244 240 241 243 246 251 256 258 260 261 264 265 263 261 256 251 248 247 248 250 252 254 253 251 249 246 246 249 252 256 255 252 250 251 252 254 257 264 273 286 302 315
234 224 214 211 208 208 210 211 215 221 228 232 234 234 234 233 234 236 241 245 245 241 238 239 242 247 253 256 258 262 266 270 272 270 266 258 253 250 248 248 250 252 254 253 252 249 246 246 248 249 252 252 249 248 249 250 253 257 262 269 281 297 310
227 225 221 218 214 213 215 217 219 222 225 229 231 232 232 231 231 232 235 238 238 237 237 238 242 247 252 255 258 263 268 274 279 280 275 267 259 254 252 253 253 254 256 255 253 251 248 247 246 245 246 246 245 246 248 249 253 258 262 267 276 291 305
219 221 224 224 220 217 217 223 227 228 228 229 230 231 230 230 230 230 231 232 233 234 236 239 244 247 250 254 258 264 270 275 280 281 279 275 270 266 263 262 263 263 262 261 259 256 252 249 246 244 242 241 242 245 247 248 253 258 262 266 273 285 297
217 218 224 226 225 223 223 227 231 232 231 230 231 234 234 234 234 231 230 229 229 231 234 239 243 246 251 255 258 265 272 274 276 279 280 278 277 276 272 269 271 273 270 269 268 265 258 251 246 243 240 239 241 244 246 247 252 258 262 265 272 282 293
220 219 222 224 227 229 229 229 231 234 235 233 232 234 238 243 244 241 237 234 233 235 238 242 245 247 251 254 257 263 268 270 274 277 279 281 282 282 281 276 273 274 276 277 276 271 265 256 249 245 244 242 243 245 246 247 252 257 261 266 273 280 290
222 222 224 223 226 232 232 231 232 235 239 239 236 237 243 249 248 246 246 244 243 245 248 251 253 253 253 254 258 263 264 265 269 272 276 282 284 285 288 286 279 276 278 279 278 275 270 262 255 252 251 249 248 247 246 246 251 256 260 267 273 279 289
225 227 228 225 224 229 231 232 233 236 238 241 240 240 245 248 244 241 243 244 245 247 250 254 254 253 254 256 259 261 261 262 265 268 271 276 280 284 288 290 288 287 284 280 277 275 272 266 262 260 258 257 253 249 245 245 249 253 260 267 273 279 286
226 228 230 228 226 227 230 231 233 235 238 243 246 243 241 240 237 235 236 239 242 246 250 254 252 250 251 255 257 259 260 261 262 265 269 272 277 282 284 285 290 295 296 290 281 275 272 268 266 263 263 263 257 250 245 245 247 251 259 267 273 279 284
227 229 231 231 230 230 231 231 232 235 239 245 247 242 237 233 233 234 235 236 237 238 244 249 249 248 248 248 252 257 258 259 259 262 265 269 274 278 280 284 289 293 294 292 288 284 278 271 265 263 265 267 260 250 245 244 245 249 258 266 272 278 281
225 227 230 232 232 233 235 236 235 235 239 244 243 241 237 233 232 233 236 238 238 237 239 241 243 245 246 244 247 253 256 257 257 259 262 265 269 273 277 281 285 287 288 290 292 293 287 275 268 266 268 269 262 250 246 245 245 249 257 264 270 276 277
224 225 229 233 234 234 237 241 238 235 235 238 241 243 243 242 241 237 235 239 243 244 243 241 239 243 246 245 244 247 251 254 255 257 259 261 266 270 273 275 278 280 283 285 288 290 287 279 273 269 269 269 261 251 247 247 247 249 255 262 267 272 274
227 225 227 231 233 234 238 242 242 237 232 232 238 243 246 248 245 238 235 239 243 248 249 243 239 241 245 246 245 245 248 251 253 254 256 258 262 265 266 268 271 273 275 278 280 282 283 281 278 275 273 270 262 254 249 249 250 251 255 260 265 269 273
229 226 228 231 232 232 235 239 242 242 237 235 238 242 246 246 243 241 245 248 248 251 253 247 241 242 245 247 248 248 247 248 249 250 252 255 258 260 262 264 264 264 266 268 271 275 277 276 275 274 273 269 263 256 252 251 252 253 255 258 263 268 274
231 227 226 230 233 232 233 236 240 242 243 241 240 242 244 243 241 245 252 253 252 255 257 252 247 246 247 249 250 250 248 247 246 246 247 249 252 255 256 257 258 259 260 261 262 265 268 267 266 268 270 269 263 256 252 251 252 253 254 257 263 268 274
234 231 226 228 232 233 234 236 239 241 244 245 243 242 242 241 242 248 253 255 256 259 261 260 254 249 248 250 250 251 251 252 253 254 254 255 256 256 254 251 251 252 253 253 254 256 258 259 261 264 267 267 262 255 251 250 251 252 254 257 263 268 272
236 234 230 228 230 233 234 235 238 241 244 248 249 249 248 247 248 253 257 258 260 263 266 266 259 251 248 249 251 253 257 258 260 261 261 261 261 262 262 262 260 257 251 247 246 248 251 256 258 259 262 264 261 256 252 250 250 252 254 257 261 266 269
234 234 232 229 228 231 233 234 236 240 243 247 251 253 253 252 252 255 259 262 264 267 269 267 260 254 253 254 257 260 262 263 265 267 269 270 267 266 267 269 269 269 264 257 251 246 245 249 254 254 256 258 258 256 253 250 249 251 252 255 259 264 267
234 232 232 231 228 229 232 233 234 237 240 244 246 249 250 250 250 253 257 263 267 269 268 265 262 260 262 266 268 269 269 269 270 273 275 275 273 272 272 270 267 269 271 272 270 260 248 244 247 249 250 253 255 254 252 249 249 250 251 253 257 261 265
236 235 233 232 231 230 230 232 234 235 237 240 242 244 246 248 249 251 253 257 261 264 264 264 265 265 267 270 271 273 274 275 275 275 276 275 275 276 279 278 274 274 276 278 281 278 262 249 246 246 246 248 251 252 251 249 248 248 250 252 255 258 261
234 236 236 235 234 233 231 231 233 235 237 240 242 244 246 249 251 252 253 254 256 260 262 263 264 264 266 267 268 269 270 271 271 272 271 272 272 273 274 276 277 278 278 276 277 279 272 259 252 249 246 245 247 250 251 249 247 247 248 251 253 256 259
233 235 237 238 238 237 235 234 234 236 238 241 243 245 247 249 252 253 255 256 257 259 261 262 263 264 265 266 267 267 266 265 265 266 268 269 271 271 271 271 273 275 275 272 271 273 273 268 262 256 250 244 243 246 249 249 247 246 248 250 252 253 256
234 235 236 238 239 240 240 240 240 240 242 244 246 248 250 251 253 255 257 259 260 261 262 263 264 266 267 268 269 269 269 267 266 267 270 272 274 275 273 271 272 273 271 268 268 268 268 271 270 264 256 248 243 242 244 246 247 247 247 249 251 252 254
234 234 235 237 240 241 241 242 243 244 246 248 251 252 254 255 257 259 260 261 262 263 265 267 268 269 270 270 271 271 270 271 270 270 271 273 274 275 274 272 271 270 268 267 268 268 267 270 273 271 264 258 251 246 243 243 245 246 248 249 251 251 253
234 234 233 234 237 239 240 241 243 245 247 249 251 253 254 256 257 258 258 259 260 262 263 264 265 266 266 266 267 267 267 268 269 269 270 271 272 272 272 271 270 269 268 268 268 268 267 268 270 270 267 264 260 255 250 246 243 244 246 249 251 251 252
235 235 235 236 237 238 239 242 244 245 247 250 252 254 256 257 258 259 259 260 261 262 262 263 264 264 264 264 264 265 266 266 267 268 268 269 270 270 270 270 269 268 267 266 265 264 264 263 262 260 257 256 258 258 256 253 247 244 244 246 249 251 250
240 241 243 244 244 244 245 246 247 248 250 252 255 257 258 260 261 262 263 264 264 265 265 266 267 267 267 268 267 267 268 268 268 268 268 268 268 268 267 266 266 265 265 264 263 261 260 260 260 258 255 253 252 254 255 255 251 247 243 242 244 247 247
246 248 249 251 252 253 254 253 254 254 255 256 258 259 260 261 262 263 265 266 266 267 268 268 268 268 268 268 268 268 268 269 270 270 270 269 269 268 267 266 266 265 264 263 262 260 258 257 257 257 258 257 255 253 252 253 253 249 243 240 240 241 243
249 251 252 253 255 256 257 258 258 259 259 259 259 260 260 261 262 263 265 266 267 269 269 269 269 269 269 268 269 268 268 268 269 269 270 270 269 269 268 267 266 265 264 264 262 260 258 256 254 254 254 256 257 257 255 255 255 252 245 240 240 240 241